Simultaneous Nadir Overpasses (SNOs) Predictions

Prediction of SNOs between GOES-16 and NPP Satellite Orbit:

Table of predicted SNOs for the next 14.0 days since TLE Epoch: 6/8/2017
Index Date Time (GOES-16) GOES-16 Lat,Lon NPP Lat,Lon Distance(km) Time Diff (sec)
1 06/09/2017 19:29:47 0.00, -89.46 -0.42, -91.44 225.49 80
2 06/10/2017 19:13:42 0.01, -89.47 0.61, -86.92 291.45 80
3 06/12/2017 07:35:30 -0.01, -89.49 0.58, -92.18 306.35 80
4 06/13/2017 07:14:05 -0.01, -89.49 -0.44, -87.65 210.54 80
5 06/14/2017 19:36:01 0.02, -89.48 -0.74, -92.95 394.95 80
6 06/15/2017 19:19:56 0.01, -89.49 0.23, -88.41 122.44 80
7 06/17/2017 07:41:44 -0.01, -89.52 0.90, -93.69 474.40 80
8 06/18/2017 07:20:19 -0.01, -89.53 -0.07, -89.15 43.05 80
9 06/20/2017 19:23:31 0.02, -89.53 -0.09, -89.92 45.06 80
10 06/21/2017 19:07:26 0.02, -89.54 0.94, -85.39 472.41 80




NCC Satellite Simultaneous Nadir Overpasses (SNOs) Prediction Service
